Macomb, IL

9:21 AM CDT on July 28, 2017 (GMT -0500)
Macomb Municipal

Weather History for KMQB - December, 2012

Change the Weather History Date:

Thursday, December 13, 2012

  Actual Average (KBRL) Record (KBRL)
Temperature  
Mean Temperature 40 °F -  
Max Temperature 52 °F 34 °F 64 °F (1975)
Min Temperature 29 °F 21 °F -9 °F (1958)
Degree Days  
Heating Degree Days 24    
Moisture  
Dew Point 25 °F    
Average Humidity 64    
Maximum Humidity 81    
Minimum Humidity 34    
Precipitation  
Precipitation 0.00 in - - ()
Sea Level Pressure  
Sea Level Pressure 30.20 in    
Wind  
Wind Speed 11 mph (South)    
Max Wind Speed 18 mph    
Max Gust Speed 28 mph    
Visibility 10 miles    
Events      
Averages and records for this station are not official NWS values.
T = Trace of Precipitation, MM = Missing Value Source: NWS Daily Summary

Daily Weather History Graph

Daily Weather History Graph

Search for Another Location

Airport or City:

Trip Planner

Search our weather history database for the weather conditions in past years. The results will help you decide how hot, cold, wet, or windy it might be!

Date:

Astronomy

Dec. 13, 2012 Rise Set
Actual Time 7:17 AM CST 4:36 PM CST
Civil Twilight 6:47 AM CST 5:07 PM CST
Nautical Twilight 6:12 AM CST 5:41 PM CST
Astronomical Twilight 5:39 AM CST 6:14 PM CST
Moon 7:26 AM CST (12/13) 5:19 PM CST (12/13)
Length of Visible Light 10h 20m
Length of Day
9h 18m
New Moon, 0% of the Moon is Illuminated
Dec 13
New Moon
Dec 19
First Quarter
Dec 28
Full
Jan 4
Last Quarter
Jan 11
New

Hourly Weather History & Observations

Time (CST) Temp. Windchill Dew Point Humidity Pressure Visibility Wind Dir Wind Speed Gust Speed Precip Events Conditions
12:15 AM 32.0 °F 23.6 °F 25.5 °F 77% 30.26 in 10.0 mi South 10.4 mph - N/A   Clear
12:35 AM 31.8 °F 23.3 °F 25.2 °F 76% 30.26 in 10.0 mi South 10.4 mph - N/A   Clear
12:55 AM 31.1 °F 21.9 °F 25.2 °F 79% 30.25 in 10.0 mi South 11.5 mph - N/A   Clear
1:15 AM 31.5 °F 22.3 °F 25.2 °F 78% 30.25 in 10.0 mi South 11.5 mph - N/A   Clear
1:35 AM 32.0 °F 23.0 °F 24.8 °F 75% 30.25 in 10.0 mi South 11.5 mph - N/A   Clear
1:55 AM 32.0 °F 23.0 °F 24.8 °F 75% 30.26 in 10.0 mi South 11.5 mph - N/A   Clear
2:15 AM 32.0 °F 22.5 °F 24.6 °F 74% 30.26 in 10.0 mi South 12.7 mph - N/A   Clear
2:35 AM 32.0 °F 23.0 °F 24.4 °F 74% 30.26 in 10.0 mi South 11.5 mph - N/A   Clear
2:55 AM 32.0 °F 23.0 °F 23.9 °F 72% 30.26 in 10.0 mi South 11.5 mph - N/A   Clear
3:15 AM 31.6 °F 23.1 °F 23.9 °F 73% 30.26 in 10.0 mi South 10.4 mph - N/A   Clear
3:35 AM 31.5 °F 22.3 °F 23.9 °F 74% 30.25 in 10.0 mi South 11.5 mph - N/A   Clear
3:55 AM 31.5 °F 22.9 °F 23.7 °F 73% 30.25 in 10.0 mi South 10.4 mph - N/A   Clear
4:15 AM 30.6 °F 22.4 °F 23.4 °F 75% 30.25 in 10.0 mi South 9.2 mph - N/A   Clear
4:35 AM 30.9 °F 22.2 °F 23.4 °F 74% 30.25 in 10.0 mi South 10.4 mph - N/A   Clear
4:55 AM 31.3 °F 22.7 °F 23.4 °F 72% 30.25 in 10.0 mi South 10.4 mph - N/A   Clear
5:15 AM 30.6 °F 22.4 °F 23.0 °F 74% 30.25 in 10.0 mi South 9.2 mph - N/A   Clear
5:35 AM 30.2 °F 21.3 °F 23.0 °F 75% 30.25 in 10.0 mi South 10.4 mph - N/A   Clear
5:55 AM 30.6 °F 21.8 °F 23.0 °F 74% 30.25 in 10.0 mi South 10.4 mph - N/A   Clear
6:15 AM 30.0 °F 21.1 °F 22.8 °F 75% 30.24 in 10.0 mi South 10.4 mph - N/A   Clear
6:35 AM 29.8 °F 19.8 °F 23.0 °F 76% 30.24 in 10.0 mi South 12.7 mph - N/A   Clear
6:55 AM 30.0 °F 20.5 °F 23.0 °F 75% 30.24 in 10.0 mi South 11.5 mph - N/A   Clear
7:15 AM 30.2 °F 20.2 °F 23.0 °F 75% 30.24 in 10.0 mi South 12.7 mph - N/A   Clear
7:35 AM 30.2 °F 19.8 °F 23.5 °F 76% 30.24 in 10.0 mi South 13.8 mph - N/A   Clear
7:55 AM 30.9 °F 21.2 °F 23.9 °F 75% 30.24 in 10.0 mi South 12.7 mph - N/A   Clear
8:15 AM 31.8 °F 22.8 °F 24.4 °F 74% 30.24 in 10.0 mi South 11.5 mph - N/A   Clear
8:35 AM 32.2 °F 23.2 °F 24.6 °F 74% 30.24 in 10.0 mi South 11.5 mph 17.3 mph N/A   Clear
8:55 AM 33.8 °F 24.3 °F 24.8 °F 70% 30.24 in 10.0 mi South 13.8 mph - N/A   Clear
9:15 AM 35.6 °F 27.1 °F 24.8 °F 65% 30.23 in 10.0 mi South 12.7 mph 19.6 mph N/A   Clear
9:35 AM 37.0 °F 28.5 °F 25.0 °F 62% 30.23 in 10.0 mi South 13.8 mph 21.9 mph N/A   Clear
9:55 AM 38.8 °F 30.8 °F 24.8 °F 57% 30.22 in 10.0 mi South 13.8 mph - N/A   Clear
10:15 AM 41.2 °F 34.1 °F 24.4 °F 51% 30.22 in 10.0 mi South 12.7 mph - N/A   Clear
10:35 AM 43.7 °F 36.3 °F 23.5 °F 45% 30.22 in 10.0 mi South 16.1 mph 23.0 mph N/A   Clear
10:55 AM 44.4 °F 37.5 °F 23.0 °F 43% 30.21 in 10.0 mi SSW 15.0 mph 24.2 mph N/A   Clear
11:15 AM 45.5 °F 38.9 °F 23.7 °F 42% 30.20 in 10.0 mi SSW 15.0 mph - N/A   Clear
11:35 AM 45.7 °F 38.8 °F 24.3 °F 43% 30.19 in 10.0 mi SSW 16.1 mph 23.0 mph N/A   Clear
11:55 AM 46.6 °F - 24.1 °F 41% 30.19 in 10.0 mi SSW 17.3 mph - N/A   Clear
12:15 PM 48.0 °F - 24.4 °F 40% 30.17 in 10.0 mi SSW 17.3 mph - N/A   Clear
12:35 PM 49.6 °F - 24.6 °F 38% 30.17 in 10.0 mi SSW 16.1 mph 20.7 mph N/A   Clear
12:55 PM 50.2 °F - 23.5 °F 35% 30.15 in 10.0 mi SSW 17.3 mph - N/A   Clear
1:15 PM 50.9 °F - 23.9 °F 35% 30.13 in 10.0 mi SSW 17.3 mph 27.6 mph N/A   Clear
1:35 PM 51.4 °F - 24.4 °F 35% 30.13 in 10.0 mi SSW 18.4 mph 26.5 mph N/A   Clear
1:55 PM 51.4 °F - 24.4 °F 35% 30.13 in 10.0 mi SW 13.8 mph 18.4 mph N/A   Clear
2:15 PM 52.0 °F - 24.8 °F 35% 30.13 in 10.0 mi SW 18.4 mph 21.9 mph N/A   Clear
2:35 PM 51.8 °F - 24.4 °F 34% 30.12 in 10.0 mi SSW 18.4 mph - N/A   Clear
2:55 PM 51.8 °F - 24.4 °F 34% 30.12 in 10.0 mi SSW 13.8 mph 23.0 mph N/A   Clear
3:15 PM 51.8 °F - 25.3 °F 36% 30.12 in 10.0 mi SSW 9.2 mph - N/A   Clear
3:35 PM 51.1 °F - 25.0 °F 36% 30.12 in 10.0 mi SW 10.4 mph - N/A   Clear
3:55 PM 50.5 °F - 24.6 °F 36% 30.12 in 10.0 mi SSW 11.5 mph 17.3 mph N/A   Clear
4:15 PM 49.5 °F - 25.2 °F 39% 30.12 in 10.0 mi SSW 9.2 mph - N/A   Clear
5:35 PM 39.6 °F 34.0 °F 27.5 °F 62% 30.12 in 10.0 mi SSE 8.1 mph - N/A   Clear
6:15 PM 37.6 °F 31.6 °F 27.0 °F 66% 30.13 in 10.0 mi South 8.1 mph - N/A   Clear
6:55 PM 35.4 °F 32.6 °F 26.6 °F 70% 30.14 in 10.0 mi South 3.5 mph - N/A   Clear
7:15 PM 36.9 °F 34.3 °F 26.6 °F 66% 30.14 in 10.0 mi South 3.5 mph - N/A   Clear
7:35 PM 35.6 °F 30.7 °F 26.6 °F 70% 30.14 in 10.0 mi South 5.8 mph - N/A   Clear
7:55 PM 34.3 °F 30.2 °F 26.6 °F 73% 30.15 in 10.0 mi South 4.6 mph - N/A   Clear
8:15 PM 33.4 °F - 26.4 °F 75% 30.15 in 10.0 mi Calm Calm - N/A   Clear
8:35 PM 36.0 °F 32.1 °F 26.6 °F 69% 30.16 in 10.0 mi South 4.6 mph - N/A   Clear
8:55 PM 33.4 °F 29.1 °F 26.4 °F 75% 30.16 in 10.0 mi South 4.6 mph - N/A   Clear
9:15 PM 34.0 °F 31.0 °F 26.4 °F 74% 30.16 in 10.0 mi South 3.5 mph - N/A   Clear
9:35 PM 32.9 °F - 26.4 °F 77% 30.16 in 10.0 mi Calm Calm - N/A   Clear
9:55 PM 31.6 °F - 25.7 °F 79% 30.16 in 10.0 mi Calm Calm - N/A   Clear
10:15 PM 31.1 °F 27.7 °F 25.7 °F 80% 30.16 in 10.0 mi SSE 3.5 mph - N/A   Clear
10:35 PM 31.1 °F 26.4 °F 25.5 °F 80% 30.16 in 10.0 mi South 4.6 mph - N/A   Clear
10:55 PM 30.7 °F 24.9 °F 25.5 °F 81% 30.17 in 10.0 mi South 5.8 mph - N/A   Clear
11:15 PM 30.9 °F 25.2 °F 25.2 °F 79% 30.17 in 10.0 mi South 5.8 mph - N/A   Clear
11:35 PM 32.2 °F 27.7 °F 25.5 °F 76% 30.17 in 10.0 mi South 4.6 mph - N/A   Clear
11:55 PM 32.5 °F 29.3 °F 25.7 °F 76% 30.17 in 10.0 mi South 3.5 mph - N/A   Clear